Showing default

CUBEL, 47448

Orbit data source: Space-Track

CUBEL, 47448 is a payload satellite owned by DLR (DE) in SSO that was launched on Sun, 24 Jan 2021 UTC via an FALCON 9 launch vehicle from the Air Force Eastern Test Range (AFETR). Payload-class satellites include a variety of spacecraft equipped with specific instruments for various scientific and technological missions. These include communications satellites like Starlink; space stations such as the ISS; scientific satellites like the Hubble; Earth observation satellites from companies like Planet Labs, Umbra, and HawkEye 360; GPS; miniature CubeSats for education and research; and military/defense satellites.

Loading next visibility...
Identifier
47448, 2021-006AM
Orbit
SSO
Country
Flag of DEDE / GER
Related business
Manufacturer
DLR2/GOMSP
Mission
Operational Civil Technology
Bus & Motor
CUBESAT 3U, Unknown motor
Mass
4 kg wet, 4 kg dry
Launch date (UTC)
2021-01-24 (6 years ago)
Launch vehicle
FALCON 9
Launch site
Air Force Eastern Test Range (AFETR)
Object type
Payload
Rocket body
Debris
Shape & HBR
Box, 0.1 m
Radar Cross Section
0.035 m², Medium (>0.1 m² and < 1m²)

Expand to show TLE details & history
Last TLE update: 12 hours ago

TLE from 12 hours ago
0 CUBEL
1 47448U 21006AM  26207.62164113  .00021493  00000-0  49865-3 0  9991
2 47448  97.2311 257.8576 0006859  48.8244 311.3595 15.42385254305835
Epoch: 2026-07-26T14:55Z
TLE epoch observation values (Epoch: 2026-07-26T14:55:09.793Z)
Latitude
0.00003°
Longitude
89.74986°
Altitude
439.109 km
Speed
7.65 km/s
True Right ascension
17h 11m 25s
True Declination
0° 00' 00"
Sunlit
Object was in full shadow at epoch
Visualization orbit readout
Latitude
Unknown
Longitude
Unknown
Altitude
Unknown
Speed
Unknown
Apparent Right ascension
Unknown
Apparent Declination
Unknown
Sunlit
N/A
Visualization observer readout
Local Sidereal Time
15:53:45
Azimuth
Unknown
Elevation
Unknown
Doppler factor
Unknown
Orbital elements
Apogee altitude
440.674 km
Perigee altitude
431.327 km
Semi-major axis
6,814.137 km
Eccentricity
0.00069
Inclination
97.2311°
RAAN
257.8576°
Arg. of periapsis
48.8244°
True anomaly
311.30047°
Mean anomaly
311.3595°
Eccentric anomaly
311.32999°
Mean motion
3.85857 °/min
Orbital period
93.3 mins
BSTAR
0.00049865
Loading maneuver chart data...
Computing Atmospheric mass density...

Documentation

Showing up to 5 results
|